This is the latest recevied weather packets stored in our database for station/object WR9A-13. If no packets are shown the sender has not sent any weather packets the latest 10 day(s).
| Time | Temp. | Humidity | Pressure | Rain* | Wind** | Luminosity | Snow |
|---|---|---|---|---|---|---|---|
| 1777837832 | 17.78° C | 49% | 1013.3 hPa | 0 mm | - | - | - |
| 1777837519 | 17.78° C | 49% | 1013.3 hPa | 0 mm | - | - | - |
| 1777837215 | 17.78° C | 48% | 1013.6 hPa | 0 mm | - | - | - |
| 1777836921 | 17.78° C | 51% | 1013.6 hPa | 0 mm | - | - | - |
| 1777836614 | 17.78° C | 51% | 1013.5 hPa | 0 mm | - | - | - |
| 1777836319 | 17.78° C | 50% | 1013.8 hPa | 0 mm | - | - | - |
| 1777836016 | 17.22° C | 50% | 1014 hPa | 0 mm | - | - | - |
| 1777835720 | 16.67° C | 56% | 1014.2 hPa | 0 mm | - | - | - |
| 1777835417 | 16.11° C | 59% | 1014.2 hPa | 0 mm | - | - | - |
| 1777835132 | 15.56° C | 60% | 1014.6 hPa | 0 mm | - | - | - |
| 1777834841 | 15.56° C | 61% | 1014.8 hPa | 0 mm | - | - | - |
| 1777834528 | 15.56° C | 62% | 1014.7 hPa | 0 mm | - | - | - |
| 1777834217 | 15° C | 56% | 1014.9 hPa | 0 mm | - | - | - |
| 1777833914 | 15° C | 54% | 1014.8 hPa | 0 mm | - | - | - |
| 1777833622 | 15° C | 51% | 1015.1 hPa | 0 mm | - | - | - |
| 1777833318 | 15° C | 50% | 1015.6 hPa | 0 mm | - | - | - |
| 1777833034 | 15° C | 53% | 1015.6 hPa | 0 mm | - | - | - |
| 1777832719 | 15.56° C | 54% | 1015.6 hPa | 0 mm | - | - | - |
| 1777832435 | 15.56° C | 53% | 1015.4 hPa | 0 mm | - | - | - |
| 1777832122 | 15.56° C | 55% | 1015.4 hPa | 0 mm | - | - | - |
| 1777831838 | 15.56° C | 56% | 1015.2 hPa | 0 mm | - | - | - |
| 1777831525 | 15.56° C | 56% | 1015.3 hPa | 0 mm | - | - | - |
| 1777831215 | 15° C | 56% | 1015.2 hPa | 0.25 mm | - | - | - |
| 1777830923 | 15° C | 56% | 1015.3 hPa | 0.25 mm | - | - | - |
| 1777830620 | 15° C | 56% | 1015.5 hPa | 0.25 mm | - | - | - |
* Rain latest hour (hover to see other rain measurements)
** Current wind speed in m/s (hover to see current wind gust speed)